Tracking 19245 objects as of 21-Aug-2018
HD Live streaming from Space Station
objects crossing your sky now

TEMPSAT 1

Track TEMPSAT 1 now!
10-day predictions
TEMPSAT 1 is classified as:


NORAD ID: 1512
Int'l Code: 1965-065E
Perigee: 1,088.8 km
Apogee: 1,193.3 km
Inclination: 89.8 °
Period: 108.0 minutes
Semi major axis: 7512 km
RCS: 0.0695 m2 (small)
Launch date: August 13, 1965
Source: United States (US)
Launch site: AIR FORCE WESTERN TEST RANGE (AFWTR)
aabbcc
Your satellite tracking list
Your tracking list is empty




NASA's NSSDC Master Catalog

Two Line Element Set (TLE):
1 01512U 65065E   18233.07338451  .00000032  00000-0  46175-4 0  9991
2 01512  89.8380 235.2517 0069559 352.7239  72.6406 13.33412314579288
Source of the keplerian elements: AFSPC